Showing default

TIANLIAN-2 03, 53100

Orbit data source: Space-Track

TIANLIAN-2 03, 53100 is a payload satellite owned by CAST (CN) in GEO that was launched on Tue, 12 Jul 2022 UTC via a CHANG ZHENG 3B launch vehicle from the Xichang Space Center, China (XSC). Payload-class satellites include a variety of spacecraft equipped with specific instruments for various scientific and technological missions. These include communications satellites like Starlink; space stations such as the ISS; scientific satellites like the Hubble; Earth observation satellites from companies like Planet Labs, Umbra, and HawkEye 360; GPS; miniature CubeSats for education and research; and military/defense satellites.

Not visible in the next 10 days
Identifier
53100, 2022-078A
Orbit
GEO
Country
Flag of CNCN / PRC
Related business
Manufacturer
CAST
Mission
Operational Civil Communications
Bus & Motor
DFH-4, FY-25
Mass
~5,000 kg wet, ~2,000 kg dry
Launch date (UTC)
2022-07-12 (4 years ago)
Launch vehicle
CHANG ZHENG 3B
Launch site
Xichang Space Center, China (XSC)
Object type
Payload
Rocket body
Debris
Shape & HBR
Box + 2 Pan + 1 Dish, 10.0 m
Radar Cross Section
40.604 m², Large (>1 m²)

Expand to show TLE details & history
Last TLE update: 2 days ago

TLE from 2 days ago
0 TIANLIAN-2 03
1 53100U 22078A   26171.25153683  .00000067  00000-0  00000+0 0  9990
2 53100   0.6787  77.0936 0001322 333.4102 319.0912  1.00271393 14573
Epoch: 2026-06-20T06:02Z
TLE epoch observation values (Epoch: 2026-06-20T06:02:12.782Z)
Latitude
-0.62497°
Longitude
10.57748°
Altitude
35,782.077 km
Speed
3.075 km/s
True Right ascension
00h 38m 23s
True Declination
0° 37' 28"
Sunlit
Object was in daylight at epoch
Visualization orbit readout
Latitude
Unknown
Longitude
Unknown
Altitude
Unknown
Speed
Unknown
Apparent Right ascension
Unknown
Apparent Declination
Unknown
Sunlit
N/A
Visualization observer readout
Local Sidereal Time
23:07:36
Azimuth
Unknown
Elevation
Unknown
Doppler factor
Unknown
Orbital elements
Apogee altitude
35,793.349 km
Perigee altitude
35,782.201 km
Semi-major axis
42,165.912 km
Eccentricity
0.00013
Inclination
0.6787°
RAAN
77.0936°
Arg. of periapsis
333.4102°
True anomaly
319.08128°
Mean anomaly
319.0912°
Eccentric anomaly
319.08624°
Mean motion
0.25067 °/min
Orbital period
1,436.16 mins
BSTAR
0
Loading maneuver chart data...
Computing Atmospheric mass density...
Loading historical data...
Loading historical data...
Loading historical data...
Loading historical data...
Loading historical data...
Loading historical data...
Loading historical data...
Other satellites on launch #78 in the year 2022 (2022-07-12 UTC)

Documentation

Showing up to 5 results
|